Regional Weather Roundup
Issued by NWS

Home | Current Version | Previous Version | Text Only | Print | Product List | Glossary Off
Versions: 1 2 3 4 5 6 7 8 9 10 11 12 13 14 15 16 17 18 19 20 21 22 23 24 25 26 27 28 29 30 31 32 33 34 35 36 37 38 39 40 41 42 43 44 45 46 47 48 49 50

718
ASUS44 KLIX 280310
RWRLA
LOUISIANA WEATHER ROUNDUP
NATIONAL WEATHER SERVICE NEW ORLEANS LA
1000 PM CDT SUN JUL 27 2014

NOTE: "FAIR" INDICATES FEW OR NO CLOUDS BELOW 12,000 FEET WITH NO
      SIGNIFICANT WEATHER AND/OR OBSTRUCTIONS TO VISIBILITY.
      SKY/WX - SKY CONDITION AND SIGNIFICANT WEATHER.
      TMP - AIR TEMPERATURE.    DP   - DEWPOINT TEMPERATURE.
      RH  - RELATIVE HUMIDITY.  PRES - PRESSURE.
      HX  - HEAT INDEX.         WCI  - WIND CHILL INDEX.

*  THESE STATIONS ARE NOT NWS OR FAA STATIONS AND ARE NOT UNDER
   NWS QUALITY CONTROL.

LAZ040-048-061>063-065-066-069-280400-
SOUTHEAST LOUISIANA

CITY           SKY/WX    TMP DP  RH WIND       PRES   REMARKS
N.O. AUDUBON     N/A     84  75  74 MISG        N/A
N.O. INTL ARPT PTCLDY    82  75  79 W10       30.06R
N.O. LAKEFRONT MOCLDY    85  76  74 W15       30.06R
N.O. DOWNTOWN* FAIR      84  72  65 SW7       30.06R
SLIDELL        PTCLDY    85  75  72 CALM      30.04R
BATON ROUGE    MOCLDY    84  76  76 SW12      30.05R
BOOTHVILLE     PTCLDY    84  77  79 W13       30.07R
BELLE CHASSE   CLEAR     82  74  76 SW3       30.06R
BOGALUSA*      FAIR      82  77  84 CALM      30.05R
GALLIANO*      NOT AVBL
NEW ROADS*     FAIR      82  77  83 SW5       30.04R
GONZALES*      FAIR      82  80  92 SW3       30.05R
HAMMOND*       PTCLDY    84  73  70 W5        30.07R
HOUMA*         PTCLDY    82  74  78 CALM      30.07R
PORT FOURCHON* CLEAR     86  75  70 SW8       30.09R HX  95

$$

LAZ041-044-053-054-280400-
SOUTHWEST LOUISIANA

CITY           SKY/WX    TMP DP  RH WIND       PRES   REMARKS
LAKE CHARLES   CLEAR     83  76  79 SW7       30.04S
LAFAYETTE      PTCLDY    83  76  79 SW8       30.05R
PATTERSON      CLEAR     81  77  89 SW5       30.10R
SALT POINT       N/A     88  77  69 SW9       30.06R HX 100
NEW IBERIA     PTCLDY    82  76  81 SW7       30.06R
CHENAULT AIRPK CLEAR     83  74  74 SW9       30.05S

$$

LAZ027-028-280400-
CENTRAL LOUISIANA

CITY           SKY/WX    TMP DP  RH WIND       PRES   REMARKS
FORT POLK      CLEAR     84  75  74 S6        30.04R
ALEXANDRIA INT CLEAR     82  76  81 CALM      30.01R
ALEXANDRIA     CLEAR     81  76  84 CALM      30.03R

$$

LAZ001-002-280400-
NORTHWEST LOUISIANA

CITY           SKY/WX    TMP DP  RH WIND       PRES   REMARKS
SHREVEPORT     PTCLDY    83  74  74 CALM      30.02R
BARKSDALE AFB  CLEAR     87  72  62 SW6       30.02R
DTN SHREVEPORT CLEAR     86  72  62 SW5       30.02R

$$

LAZ014-016-280400-
NORTHEAST LOUISIANA

CITY           SKY/WX    TMP DP  RH WIND       PRES   REMARKS
MONROE         PTCLDY    83  75  77 CALM      30.02R
TALLULAH       CLEAR     80  76  87 S3        30.01R

$$




USA.gov is the U.S. government's official web portal to all federal, state and local government web resources and services.